Location: *
(47.8307°S, 178.3954°E)
Time: 08:37:06
(UTC+00:00)

Cosmos 1975 Rocket - Pass Details

Date: 12 August 2024
Orbit: 599 x 629 km, 82.5° (Epoch: 19 September)

Event Time Altitude Azimuth Distance (km) Brightness Sun altitude
Rises 18:06:25 0° 342° (NNW) 2,870 6.4 -11.6°
Reaches altitude 10° 18:08:39 10° 338° (NNW) 1,979 5.5 -11.3°
Maximum altitude 18:12:59 59° 258° (WSW) 727 3.1 -10.5°
Drops below altitude 10° 18:17:25 10° 177° (S) 2,026 5.6 -9.8°
Sets 18:19:44 0° 173° (S) 2,946 6.5 -9.4°
